FW0183 Weather Reports


Display with metric or nautical units.
time (UTC)temp
F
wind
direction
speed
MPH
gust
MPH
rain 1hr
in
rain 24hr
in
rain mn
in
humidity
%
barometer
mb
20260502221616 44 326 4.0 13.0 0.00 0.00 0.00 53 1015.8
20260502220009 44 46 3.0 9.0 0.00 0.00 0.00 52 1015.5
20260502214502 44 328 4.0 13.0 0.00 0.00 0.00 52 1015.3
20260502213057 44 42 3.0 9.0 0.00 0.00 0.00 52 1015.3
20260502211550 46 355 2.0 9.0 0.00 0.00 0.00 50 1014.9
20260502210058 46 336 3.0 9.0 0.00 0.00 0.00 54 1015.0
20260502204541 45 355 3.0 9.0 0.00 0.00 0.00 54 1014.9
20260502203031 46 42 5.0 14.0 0.00 0.00 0.00 49 1015.0
20260502201507 48 35 5.0 13.0 0.00 0.00 0.00 49 1015.0
20260502200101 46 75 3.0 10.0 0.00 0.00 0.00 51 1015.4
20260502194542 45 267 3.0 9.0 0.00 0.00 0.00 52 1015.2
20260502193036 48 59 4.0 10.0 0.00 0.00 0.00 47 1015.2
20260502191530 47 360 7.0 13.0 0.00 0.00 0.00 51 1015.0
20260502190034 47 68 2.0 16.0 0.00 0.00 0.00 49 1014.8
20260502184623 49 322 3.0 14.0 0.00 0.00 0.00 47 1014.9
20260502183116 48 5 2.0 13.0 0.00 0.00 0.00 47 1015.0
20260502181609 51 35 2.0 9.0 0.00 0.00 0.00 47 1015.1
20260502163011 50 39 6.0 13.0 0.00 0.00 0.00 47 1015.5
20260502161505 48 337 5.0 12.0 0.00 0.00 0.00 48 1015.6
20260502151622 46 28 3.0 11.0 0.00 0.00 0.00 51 1016.0
20260502123043 36 48 7.0 13.0 0.00 0.00 0.00 71 1016.0
20260502121546 36 360 11.0 14.0 0.00 0.00 0.00 71 1015.9
20260502114522 36 360 3.0 11.0 0.00 0.00 0.00 72 1015.8
20260502113015 35 360 3.0 11.0 0.00 0.00 0.00 73 1015.9
20260502110148 34 360 1.0 3.0 0.00 0.00 0.00 76 1015.5
20260502104540 34 360 0.0 2.0 0.00 0.00 0.00 74 1015.3
20260502103038 35 360 0.0 2.0 0.00 0.00 0.00 73 1015.3
20260502101535 35 360 0.0 0.0 0.00 0.00 0.00 72 1015.4
20260502070028 40 33 2.0 12.0 0.00 0.00 0.00 75 1015.6
20260502064529 41 78 1.0 4.0 0.00 0.00 0.00 78 1015.8
20260502063027 41 42 2.0 9.0 0.00 0.00 0.00 78 1016.1
20260502061516 41 42 2.0 9.0 0.00 0.00 0.00 76 1016.2
20260502060009 42 51 1.0 4.0 0.00 0.00 0.00 75 1016.4
20260502054503 42 51 0.0 4.0 0.00 0.00 0.00 75 1016.4
20260502053124 42 51 1.0 11.0 0.00 0.00 0.00 74 1016.6
20260502051604 42 57 1.0 6.0 0.00 0.00 0.00 74 1016.3
20260502050045 42 45 3.0 7.0 0.00 0.00 0.00 73 1016.2
20260502044540 43 9 3.0 6.0 0.00 0.00 0.00 72 1016.2
20260502043026 43 46 2.0 5.0 0.00 0.00 0.00 73 1016.3
20260502041527 43 35 6.0 11.0 0.00 0.00 0.00 73 1016.4
20260502040014 44 37 3.0 12.0 0.00 0.00 0.00 73 1016.5
20260502034509 44 53 0.0 5.0 0.00 0.00 0.00 72 1016.5
20260502033002 44 55 2.0 15.0 0.00 0.00 0.00 71 1016.4
20260502031557 45 36 2.0 6.0 0.00 0.00 0.00 72 1016.5
20260502030054 45 55 1.0 6.0 0.00 0.00 0.00 71 1016.6
20260502024544 45 63 1.0 7.0 0.00 0.00 0.00 72 1016.5
20260502023028 46 23 1.0 6.0 0.00 0.00 0.00 72 1016.3
20260502021527 46 18 2.0 10.0 0.00 0.00 0.00 71 1016.3
20260502020026 46 45 2.0 6.0 0.00 0.00 0.00 72 1016.0
20260502014620 47 49 2.0 9.0 0.00 0.00 0.00 71 1015.7
20260502013013 47 64 3.0 11.0 0.00 0.00 0.00 70 1015.3
20260502011507 48 42 3.0 13.0 0.00 0.00 0.00 66 1015.4
20260502010105 50 360 3.0 10.0 0.00 0.00 0.00 59 1015.0
20260502004558 51 74 3.0 9.0 0.00 0.00 0.00 54 1014.3
20260502003037 52 71 4.0 10.0 0.00 0.00 0.00 51 1013.9
20260502001531 53 318 5.0 13.0 0.00 0.00 0.00 49 1013.6
20260502000027 53 360 7.0 16.0 0.00 0.00 0.00 48 1013.4
20260501234526 54 299 5.0 17.0 0.00 0.00 0.00 46 1013.4
20260501233023 54 299 7.0 14.0 0.00 0.00 0.00 48 1013.1
20260501231516 54 360 8.0 13.0 0.00 0.00 0.00 48 1012.9
20260501230010 55 360 9.0 16.0 0.00 0.00 0.00 43 1013.0
20260501224502 56 291 8.0 14.0 0.00 0.00 0.00 43 1013.2
20260501223127 56 360 4.0 19.0 0.00 0.00 0.00 43 1013.2